FW1241 Weather Reports


Display with metric or nautical units.
time (UTC)temp
F
wind
direction
speed
MPH
gust
MPH
rain 1hr
in
rain 24hr
in
rain mn
in
humidity
%
barometer
mb
20260507103604 57 205 0.0 0.0 0.00 0.00 0.00 87 1016.9
20260507103105 57 205 0.0 0.0 0.00 0.00 0.00 87 1016.9
20260507102105 58 205 0.0 0.0 0.00 0.00 0.00 86 1016.9
20260507101605 58 205 0.0 0.0 0.00 0.00 0.00 86 1016.9
20260507100605 58 205 0.0 0.0 0.00 0.00 0.00 85 1016.8
20260507100105 59 300 0.0 0.0 0.00 0.00 0.00 85 1016.8
20260507095605 59 300 0.0 0.0 0.00 0.00 0.00 85 1016.9
20260507094605 59 300 0.0 0.0 0.00 0.00 0.00 85 1016.8
20260507091604 59 300 0.0 0.0 0.00 0.00 0.00 85 1016.9
20260507091105 59 300 0.0 0.0 0.00 0.00 0.00 85 1016.9
20260507085105 60 300 0.0 0.0 0.00 0.00 0.00 84 1016.9
20260507084604 60 300 0.0 0.0 0.00 0.00 0.00 84 1017.0
20260507082605 60 300 0.0 0.0 0.00 0.00 0.00 82 1017.0
20260507081605 61 300 0.0 0.0 0.00 0.00 0.00 81 1017.1
20260507080106 61 300 0.0 0.0 0.00 0.00 0.00 81 1017.2
20260507075604 61 300 0.0 0.0 0.00 0.00 0.00 81 1017.2
20260507075105 61 300 0.0 0.0 0.00 0.00 0.00 81 1017.2
20260507074106 61 300 0.0 0.0 0.00 0.00 0.00 80 1017.1
20260507073104 61 300 0.0 0.0 0.00 0.00 0.00 80 1017.2
20260507071106 61 300 0.0 0.0 0.00 0.00 0.00 80 1017.2
20260507065605 62 300 0.0 0.0 0.00 0.00 0.00 80 1017.2
20260507065105 62 300 0.0 0.0 0.00 0.00 0.00 80 1017.2
20260507064105 62 300 0.0 0.0 0.00 0.00 0.00 80 1017.2
20260507062605 63 300 0.0 0.0 0.00 0.00 0.00 79 1017.1
20260507061105 64 300 0.0 0.0 0.00 0.00 0.00 77 1017.0
20260507060605 64 300 0.0 0.0 0.00 0.00 0.00 77 1017.0
20260507060105 64 300 0.0 0.0 0.00 0.00 0.00 78 1017.0
20260507055605 65 300 0.0 0.0 0.00 0.00 0.00 76 1017.0
20260507055105 65 300 0.0 0.0 0.00 0.00 0.00 75 1017.0
20260507052604 66 300 0.0 0.0 0.00 0.00 0.00 71 1016.8
20260507052105 66 300 0.0 0.0 0.00 0.00 0.00 70 1016.8
20260507050605 66 300 0.0 0.0 0.00 0.00 0.00 69 1016.8
20260507045605 66 300 0.0 0.0 0.00 0.00 0.00 67 1016.7
20260507044605 67 300 0.0 0.0 0.00 0.00 0.00 65 1016.6
20260507044105 67 300 0.0 0.0 0.00 0.00 0.00 64 1016.6
20260507043605 68 300 0.0 0.0 0.00 0.00 0.00 64 1016.5
20260507041104 69 300 0.0 0.0 0.00 0.00 0.00 61 1016.3
20260507040604 69 300 0.0 0.0 0.00 0.00 0.00 61 1016.3
20260507040105 69 300 0.0 0.0 0.00 0.00 0.00 60 1016.3
20260507034605 70 300 0.0 0.0 0.00 0.00 0.00 59 1016.1
20260507034105 70 300 0.0 0.0 0.00 0.00 0.00 59 1016.1
20260507032105 71 300 0.0 0.0 0.00 0.00 0.00 57 1015.8
20260507031104 72 300 0.0 0.0 0.00 0.00 0.00 55 1015.7
20260507025104 73 300 0.0 0.0 0.00 0.00 0.00 52 1015.6
20260507024605 74 300 0.0 0.0 0.00 0.00 0.00 51 1015.6
20260507024105 74 300 0.0 1.0 0.00 0.00 0.00 51 1015.5
20260507022605 75 299 0.0 1.0 0.00 0.00 0.00 49 1015.4
20260507021605 76 284 0.0 1.0 0.00 0.00 0.00 49 1015.4
20260507021105 76 286 0.0 1.0 0.00 0.00 0.00 48 1015.4
20260507020605 77 284 0.0 1.0 0.00 0.00 0.00 47 1015.4
20260507020105 77 302 0.0 1.0 0.00 0.00 0.00 46 1015.3
20260507015105 78 300 0.0 3.0 0.00 0.00 0.00 44 1015.5
20260507014605 79 316 0.0 3.0 0.00 0.00 0.00 44 1015.4
20260507010605 80 324 0.0 3.0 0.00 0.00 0.00 40 1015.4
20260507005605 80 299 0.0 1.0 0.00 0.00 0.00 41 1015.4
20260507003605 80 298 0.0 2.0 0.00 0.00 0.00 41 1015.4
20260507002105 81 71 0.0 1.0 0.00 0.00 0.00 40 1015.4
20260507001104 81 275 0.0 1.0 0.00 0.00 0.00 42 1015.4
20260507000605 80 300 0.0 3.0 0.00 0.00 0.00 40 1015.4
20260507000104 80 305 1.0 3.0 0.00 0.00 0.00 40 1015.5
20260506235605 80 293 1.0 3.0 0.00 0.00 0.00 41 1015.5
20260506234605 80 303 1.0 3.0 0.00 0.00 0.00 40 1015.5
20260506234105 80 293 1.0 3.0 0.00 0.00 0.00 43 1015.5
20260506233605 80 286 1.0 3.0 0.00 0.00 0.00 39 1015.6
20260506232605 80 314 2.0 3.0 0.00 0.00 0.00 40 1015.5
20260506231605 80 305 0.0 1.0 0.00 0.00 0.00 42 1015.7
20260506225105 79 333 1.0 2.0 0.00 0.00 0.00 42 1016.0
20260506224605 79 315 1.0 3.0 0.00 0.00 0.00 40 1016.0
20260506222604 79 286 1.0 3.0 0.00 0.00 0.00 42 1016.4
20260506221604 79 317 0.0 1.0 0.00 0.00 0.00 43 1016.4
20260506220104 79 318 1.0 3.0 0.00 0.00 0.00 41 1016.7
20260506215105 80 306 1.0 3.0 0.00 0.00 0.00 42 1016.9
20260506213604 78 186 0.0 2.0 0.00 0.00 0.00 45 1017.0
20260506211605 78 334 0.0 3.0 0.00 0.00 0.00 45 1017.3
20260506205604 77 102 0.0 2.0 0.00 0.00 0.00 45 1017.4
20260506203605 76 180 0.0 1.0 0.00 0.00 0.00 46 1017.5
20260506203104 76 168 0.0 1.0 0.00 0.00 0.00 46 1017.6
20260506202605 76 293 1.0 5.0 0.00 0.00 0.00 45 1017.7
20260506202105 76 263 1.0 5.0 0.00 0.00 0.00 46 1017.7
20260506201604 76 281 0.0 2.0 0.00 0.00 0.00 45 1017.9
20260506200105 76 216 0.0 2.0 0.00 0.00 0.00 48 1018.0
20260506195604 76 78 1.0 3.0 0.00 0.00 0.00 46 1018.1
20260506194104 76 305 0.0 1.0 0.00 0.00 0.00 47 1018.3
20260506193104 76 163 1.0 3.0 0.00 0.00 0.00 47 1018.5
20260506192105 75 159 0.0 3.0 0.00 0.00 0.00 48 1018.6
20260506191604 75 171 0.0 3.0 0.00 0.00 0.00 49 1018.5
20260506191104 74 114 0.0 2.0 0.00 0.00 0.00 53 1018.7
20260506185105 73 280 0.0 2.0 0.00 0.00 0.00 51 1018.8
20260506184106 74 279 0.0 1.0 0.00 0.00 0.00 47 1019.0
20260506183105 74 183 1.0 3.0 0.00 0.00 0.00 49 1019.1
20260506182104 73 287 0.0 1.0 0.00 0.00 0.00 50 1019.2
20260506181105 73 311 0.0 2.0 0.00 0.00 0.00 53 1019.2
20260506180104 73 281 0.0 3.0 0.00 0.00 0.00 51 1019.3
20260506174105 72 159 0.0 2.0 0.00 0.00 0.00 55 1019.3
20260506173605 72 34 0.0 2.0 0.00 0.00 0.00 55 1019.4
20260506171105 71 168 1.0 5.0 0.00 0.00 0.00 57 1019.5
20260506170104 69 197 0.0 3.0 0.00 0.00 0.00 58 1019.6
20260506165105 69 190 1.0 3.0 0.00 0.00 0.00 58 1019.8
20260506164104 69 169 1.0 3.0 0.00 0.00 0.00 60 1019.8
20260506163604 69 176 1.0 3.0 0.00 0.00 0.00 60 1019.8
20260506162605 68 191 0.0 2.0 0.00 0.00 0.00 61 1019.8
20260506161104 67 184 0.0 3.0 0.00 0.00 0.00 62 1019.9
20260506160105 67 197 0.0 2.0 0.00 0.00 0.00 63 1019.9
20260506155605 66 169 0.0 3.0 0.00 0.00 0.00 63 1019.9
20260506155105 66 124 1.0 2.0 0.00 0.00 0.00 65 1019.9
20260506154105 66 129 0.0 3.0 0.00 0.00 0.00 66 1019.9
20260506153605 65 156 1.0 3.0 0.00 0.00 0.00 66 1019.9
20260506153105 65 172 0.0 0.0 0.00 0.00 0.00 67 1019.9
20260506152605 64 194 0.0 1.0 0.00 0.00 0.00 68 1019.9
20260506152105 64 191 0.0 2.0 0.00 0.00 0.00 67 1020.0
20260506151605 64 91 0.0 0.0 0.00 0.00 0.00 70 1019.9
20260506150605 63 125 0.0 1.0 0.00 0.00 0.00 72 1020.0
20260506150105 62 160 0.0 0.0 0.00 0.00 0.00 74 1020.1
20260506145605 61 121 0.0 1.0 0.00 0.00 0.00 75 1020.0
20260506144605 60 120 0.0 0.0 0.00 0.00 0.00 76 1020.0
20260506143105 58 124 0.0 0.0 0.00 0.00 0.00 82 1019.9
20260506142605 57 125 0.0 0.0 0.00 0.00 0.00 83 1019.8
20260506141605 55 128 0.0 0.0 0.00 0.00 0.00 87 1019.8
20260506140604 53 128 0.0 0.0 0.00 0.00 0.00 88 1019.7
20260506140104 53 128 0.0 0.0 0.00 0.00 0.00 88 1019.5
20260506135604 53 128 0.0 0.0 0.00 0.00 0.00 89 1019.5
20260506134605 52 129 0.0 0.0 0.00 0.00 0.00 89 1019.3
20260506133105 51 129 0.0 0.0 0.00 0.00 0.00 91 1019.1
20260506131105 50 129 0.0 0.0 0.00 0.00 0.00 90 1018.9
20260506130105 50 129 0.0 0.0 0.00 0.00 0.00 90 1018.8
20260506124604 51 129 0.0 0.0 0.00 0.00 0.00 90 1018.5
20260506122604 51 129 0.0 0.0 0.00 0.00 0.00 90 1018.6
20260506122104 51 129 0.0 0.0 0.00 0.00 0.00 90 1018.6
20260506121605 51 129 0.0 0.0 0.00 0.00 0.00 90 1018.6
20260506121105 51 129 0.0 0.0 0.00 0.00 0.00 90 1018.5
20260506120605 51 129 0.0 0.0 0.00 0.00 0.00 90 1018.5
20260506120105 51 129 0.0 0.0 0.00 0.00 0.00 90 1018.4
20260506114604 51 129 0.0 0.0 0.00 0.00 0.00 90 1018.4
20260506112105 51 129 0.0 0.0 0.00 0.00 0.00 90 1018.1
20260506111604 51 129 0.0 0.0 0.00 0.00 0.00 90 1018.0
20260506111105 52 129 0.0 0.0 0.00 0.00 0.00 90 1017.9
20260506110605 52 129 0.0 0.0 0.00 0.00 0.00 90 1017.9
20260506110105 52 129 0.0 0.0 0.00 0.00 0.00 90 1017.9
20260506104105 52 129 0.0 0.0 0.00 0.00 0.00 89 1017.6